Guthrie, OK

8:12 PM CDT on May 21, 2018 (GMT -0500)
Guthrie Municipal

Weather History for KGOK - May, 2013

Change the Weather History Date:

Tuesday, May 28, 2013

  Actual Average Record
Temperature  
Mean Temperature 78 °F -  
Max Temperature 81 °F 82 °F 97 °F (2012)
Min Temperature 73 °F 60 °F 48 °F (1992)
Cooling Degree Days 12    
Growing Degree Days 28 (Base 50)    
Moisture  
Dew Point 67 °F    
Average Humidity 69    
Maximum Humidity 78    
Minimum Humidity 61    
Precipitation  
Precipitation 0.00 in - - ()
Sea Level Pressure  
Sea Level Pressure 29.71 in    
Wind  
Wind Speed 18 mph (South)    
Max Wind Speed 23 mph    
Max Gust Speed 37 mph    
Visibility 8 miles    
Events      
Averages and records for this station are not official NWS values.
T = Trace of Precipitation, MM = Missing Value Source: NWS Daily Summary

Daily Weather History Graph

Daily Weather History Graph

Search for Another Location

Airport or City:

Astronomy

May. 28, 2013 Rise Set
Actual Time 6:16 AM CDT 8:38 PM CDT
Civil Twilight 5:46 AM CDT 9:07 PM CDT
Nautical Twilight 5:10 AM CDT 9:43 PM CDT
Astronomical Twilight 4:30 AM CDT 10:23 PM CDT
Moon No Moon Rise 10:02 AM CDT (5/28)
Length of Visible Light 15h 20m
Length of Day
14h 22m
Waning Gibbous, 82% of the Moon is Illuminated
May 28
Waning Gibbous
May 31
Last Quarter
Jun 8
New
Jun 16
First Quarter
Jun 23
Full

Hourly Weather History & Observations

Time (CDT) Temp. Heat Index Dew Point Humidity Pressure Visibility Wind Dir Wind Speed Gust Speed Precip Events Conditions
12:53 AM 79.0 °F - 66.0 °F 64% 29.67 in 10.0 mi South 21.9 mph 36.8 mph N/A   Clear
1:53 AM 79.0 °F - 66.9 °F 66% 29.67 in 10.0 mi South 20.7 mph 31.1 mph N/A   Clear
2:53 AM 78.1 °F - 66.9 °F 68% 29.67 in 10.0 mi South 17.3 mph 25.3 mph N/A   Clear
3:53 AM 78.1 °F - 66.9 °F 68% 29.67 in 10.0 mi South 13.8 mph 25.3 mph N/A   Clear
4:53 AM 77.0 °F - 68.0 °F 74% 29.67 in 9.0 mi South 18.4 mph 27.6 mph N/A   Clear
5:53 AM 77.0 °F - 68.0 °F 74% 29.69 in 9.0 mi SSW 18.4 mph 28.8 mph N/A   Mostly Cloudy
6:07 AM 75.2 °F - 68.0 °F 78% 29.73 in 9.0 mi South 18.4 mph 28.8 mph N/A   Scattered Clouds
6:53 AM 75.9 °F - 68.0 °F 76% 29.69 in 7.0 mi South 18.4 mph 27.6 mph N/A   Clear
7:53 AM 75.9 °F - 68.0 °F 76% 29.70 in 7.0 mi South 23.0 mph 33.4 mph N/A   Partly Cloudy
8:53 AM 75.9 °F - 68.0 °F 76% 29.70 in 7.0 mi South 20.7 mph 27.6 mph N/A   Scattered Clouds
9:50 AM 78.8 °F - 68.0 °F 69% 29.74 in 7.0 mi South 19.6 mph 28.8 mph N/A   Mostly Cloudy
9:53 AM 78.1 °F - 68.0 °F 71% 29.71 in 7.0 mi South 19.6 mph 28.8 mph N/A   Mostly Cloudy
10:53 AM 78.1 °F - 68.0 °F 71% 29.71 in 7.0 mi South 18.4 mph 26.5 mph N/A   Mostly Cloudy
11:53 AM 80.1 °F 82.7 °F 68.0 °F 67% 29.72 in 8.0 mi South 17.3 mph 33.4 mph N/A   Overcast
12:51 PM 80.6 °F 82.7 °F 66.2 °F 61% 29.76 in 8.0 mi South 19.6 mph 28.8 mph N/A   Overcast
12:53 PM 80.1 °F 82.3 °F 66.9 °F 64% 29.73 in 8.0 mi South 18.4 mph 28.8 mph N/A   Overcast
1:53 PM 80.1 °F 82.1 °F 66.0 °F 62% 29.72 in 8.0 mi South 18.4 mph 29.9 mph N/A   Mostly Cloudy
2:53 PM 80.1 °F 82.1 °F 66.0 °F 62% 29.73 in 8.0 mi South 19.6 mph 28.8 mph N/A   Mostly Cloudy
3:53 PM 80.1 °F 82.1 °F 66.0 °F 62% 29.73 in 8.0 mi South 15.0 mph 25.3 mph N/A   Scattered Clouds
4:53 PM 80.1 °F 82.3 °F 66.9 °F 64% 29.70 in 8.0 mi South 17.3 mph 23.0 mph N/A   Overcast
5:53 PM 80.1 °F 82.3 °F 66.9 °F 64% 29.70 in 8.0 mi South 20.7 mph 28.8 mph N/A   Scattered Clouds
6:53 PM 79.0 °F - 66.9 °F 66% 29.69 in 8.0 mi South 15.0 mph 24.2 mph N/A   Overcast
7:53 PM 78.1 °F - 66.0 °F 66% 29.68 in 8.0 mi South 16.1 mph 25.3 mph N/A   Clear
8:53 PM 77.0 °F - 64.9 °F 66% 29.69 in 9.0 mi SSE 12.7 mph - N/A   Clear
9:53 PM 75.0 °F - 64.9 °F 71% 29.75 in 10.0 mi South 5.8 mph - N/A   Partly Cloudy
10:53 PM 75.0 °F - 64.9 °F 71% 29.75 in 10.0 mi SSE 10.4 mph - N/A   Clear
11:53 PM 73.9 °F - 64.9 °F 73% 29.74 in 9.0 mi SSE 8.1 mph - N/A   Clear